EW0435 Weather Reports


time (UTC)temp
C
wind
direction
speed
KPH
gust
KPH
rain 1hr
cm
rain 24hr
cm
rain mn
cm
humidity
%
barometer
mb
20260505122504 8 104 0.0 0.0 0.00 0.00 0.00 64 1016.2
20260505122004 8 104 0.0 0.0 0.00 0.00 0.00 65 1016.2
20260505121004 8 104 0.0 0.0 0.00 0.00 0.00 65 1016.2
20260505120005 8 104 0.0 0.0 0.00 0.00 0.00 64 1016.2
20260505115004 8 104 0.0 0.0 0.00 0.00 0.00 65 1016.2
20260505114504 8 104 0.0 0.0 0.00 0.00 0.00 66 1016.1
20260505114004 8 103 0.0 0.0 0.00 0.00 0.00 66 1016.1
20260505113504 8 103 0.0 0.0 0.00 0.00 0.00 65 1016.2
20260505113004 8 103 0.0 0.0 0.00 0.00 0.00 64 1016.1
20260505112504 9 103 0.0 0.0 0.00 0.00 0.00 64 1016.1
20260505112004 9 103 0.0 0.0 0.00 0.00 0.00 63 1016.0
20260505111504 9 103 0.0 0.0 0.00 0.00 0.00 63 1016.0
20260505111004 9 103 0.0 0.0 0.00 0.00 0.00 63 1015.9
20260505102004 10 103 0.0 0.0 0.00 0.00 0.00 60 1015.7
20260505101504 11 103 0.0 0.0 0.00 0.00 0.00 59 1015.6
20260505101004 11 103 0.0 0.0 0.00 0.00 0.00 59 1015.6
20260505100504 11 103 0.0 0.0 0.00 0.00 0.00 59 1015.6
20260505100004 11 103 0.0 0.0 0.00 0.00 0.00 59 1015.6
20260505095503 11 103 0.0 0.0 0.00 0.00 0.00 59 1015.6
20260505095005 11 103 0.0 0.0 0.00 0.00 0.00 58 1015.6
20260505094004 11 103 0.0 0.0 0.00 0.00 0.00 58 1015.5
20260505093504 11 103 0.0 0.0 0.00 0.00 0.00 57 1015.5
20260505093004 11 103 0.0 0.0 0.00 0.00 0.00 57 1015.5
20260505092504 11 103 0.0 0.0 0.00 0.00 0.00 57 1015.5
20260505092004 11 103 0.0 0.0 0.00 0.00 0.00 58 1015.5
20260505091504 11 103 0.0 0.0 0.00 0.00 0.00 57 1015.5
20260505091004 11 103 0.0 0.0 0.00 0.00 0.00 57 1015.5
20260505090505 11 103 0.0 0.0 0.00 0.00 0.00 56 1015.5
20260505090004 11 86 0.0 0.0 0.00 0.00 0.00 57 1015.5
20260505085504 11 86 0.0 0.0 0.00 0.00 0.00 58 1015.5
20260505085004 11 86 0.0 0.0 0.00 0.00 0.00 58 1015.5
20260505084504 11 86 0.0 0.0 0.00 0.00 0.00 58 1015.5
20260505084004 11 102 0.0 0.0 0.00 0.00 0.00 60 1015.5
20260505083504 11 66 0.0 0.0 0.00 0.00 0.00 61 1015.6
20260505083005 11 66 0.0 0.0 0.00 0.00 0.00 61 1015.5
20260505082504 11 67 0.0 0.0 0.00 0.00 0.00 62 1015.5
20260505082005 10 75 0.0 0.0 0.00 0.00 0.00 64 1015.5
20260505081504 10 76 0.0 0.0 0.00 0.00 0.00 66 1015.4
20260505080003 10 67 0.0 0.0 0.00 0.00 0.00 65 1015.4
20260505075504 11 82 0.0 1.6 0.00 0.00 0.00 65 1015.5
20260505074504 11 74 0.0 1.6 0.00 0.00 0.00 64 1015.5
20260505074004 11 77 0.0 0.0 0.00 0.00 0.00 63 1015.5
20260505073504 11 82 0.0 1.6 0.00 0.00 0.00 63 1015.5
20260505072003 12 86 0.0 0.0 0.00 0.00 0.00 62 1015.5
20260505071504 12 88 0.0 0.0 0.00 0.00 0.00 61 1015.5
20260505071004 12 90 0.0 0.0 0.00 0.00 0.00 61 1015.4
20260505070504 12 90 0.0 0.0 0.00 0.00 0.00 61 1015.4
20260505070004 12 91 0.0 0.0 0.00 0.00 0.00 61 1015.4
20260505065503 12 97 0.0 0.0 0.00 0.00 0.00 62 1015.4
20260505065004 12 97 0.0 0.0 0.00 0.00 0.00 62 1015.3
20260505064504 12 98 0.0 0.0 0.00 0.00 0.00 63 1015.3
20260505064004 12 98 0.0 0.0 0.00 0.00 0.00 65 1015.2
20260505063504 12 98 0.0 0.0 0.00 0.00 0.00 67 1015.2
20260505063004 12 98 0.0 0.0 0.00 0.00 0.00 67 1015.2
20260505062504 12 98 0.0 0.0 0.00 0.00 0.00 67 1015.1
20260505062004 12 98 0.0 0.0 0.00 0.00 0.00 67 1015.1
20260505061004 12 98 0.0 0.0 0.00 0.00 0.00 67 1015.1
20260505060504 12 99 0.0 0.0 0.00 0.00 0.00 68 1015.1
20260505060005 12 99 0.0 0.0 0.00 0.00 0.00 68 1015.1
20260505055504 12 99 0.0 0.0 0.00 0.00 0.00 68 1015.1
20260505055004 12 99 0.0 0.0 0.00 0.00 0.00 69 1015.0
20260505054504 12 99 0.0 0.0 0.00 0.00 0.00 69 1015.0
20260505054004 12 99 0.0 0.0 0.00 0.00 0.00 68 1015.0
20260505053504 12 99 0.0 0.0 0.00 0.00 0.00 67 1015.0
20260505053004 12 99 0.0 0.0 0.00 0.00 0.00 67 1014.9
20260505052503 12 99 0.0 0.0 0.00 0.00 0.00 67 1014.9
20260505051004 12 99 0.0 0.0 0.00 0.00 0.00 68 1014.9
20260505050504 12 99 0.0 0.0 0.00 0.00 0.00 67 1015.0
20260505041503 13 82 0.0 0.0 0.00 0.00 0.00 65 1014.5
20260505040504 14 74 1.6 4.8 0.00 0.00 0.00 59 1014.3
20260505040005 15 58 1.6 8.0 0.00 0.00 0.00 55 1014.2
20260505035504 14 5 0.0 3.2 0.00 0.00 0.00 55 1014.1
20260505035004 14 342 0.0 9.7 0.00 0.00 0.00 60 1013.9
20260505034004 15 319 0.0 0.0 0.00 0.00 0.00 59 1013.8
20260505033504 15 316 0.0 0.0 0.00 0.00 0.00 58 1013.7
20260505033004 15 307 0.0 4.8 0.00 0.00 0.00 58 1013.6
20260505032504 15 313 0.0 1.6 0.00 0.00 0.00 57 1013.5
20260505031504 15 312 0.0 4.8 0.00 0.00 0.00 57 1013.5
20260505031005 16 315 0.0 3.2 0.00 0.00 0.00 56 1013.6
20260505030003 16 314 0.0 3.2 0.00 0.00 0.00 55 1013.5
20260505025504 16 309 0.0 4.8 0.00 0.00 0.00 55 1013.5
20260505025004 16 316 0.0 3.2 0.00 0.00 0.00 54 1013.5
20260505024504 17 312 0.0 3.2 0.00 0.00 0.00 53 1013.5
20260505024004 17 317 0.0 1.6 0.00 0.00 0.00 53 1013.5
20260505023504 17 329 0.0 0.0 0.00 0.00 0.00 53 1013.4
20260505022503 18 329 0.0 1.6 0.00 0.00 0.00 51 1013.4
20260505022004 18 332 0.0 0.0 0.00 0.00 0.00 50 1013.4
20260505021505 18 336 0.0 3.2 0.00 0.00 0.00 49 1013.4
20260505021004 18 318 0.0 3.2 0.00 0.00 0.00 49 1013.3
20260505020504 19 310 1.6 4.8 0.00 0.00 0.00 47 1013.3
20260505020005 19 314 0.0 3.2 0.00 0.00 0.00 47 1013.3
20260505015504 20 324 0.0 3.2 0.00 0.00 0.00 46 1013.3
20260505015004 20 317 0.0 4.8 0.00 0.00 0.00 46 1013.3
20260505014504 20 324 1.6 8.0 0.00 0.00 0.00 45 1013.3
20260505013504 20 313 1.6 4.8 0.00 0.00 0.00 44 1013.3
20260505013004 20 318 1.6 4.8 0.00 0.00 0.00 45 1013.3
20260505012004 20 315 1.6 11.3 0.00 0.00 0.00 43 1013.4
20260505011504 20 318 1.6 11.3 0.00 0.00 0.00 43 1013.4
20260505011003 20 327 0.0 8.0 0.00 0.00 0.00 44 1013.4
20260505010504 20 329 1.6 8.0 0.00 0.00 0.00 42 1013.5
20260505010004 21 303 1.6 19.3 0.00 0.00 0.00 41 1013.5
20260505005004 21 330 1.6 9.7 0.00 0.00 0.00 41 1013.6
20260505004004 21 335 0.0 4.8 0.00 0.00 0.00 43 1013.6
20260505003504 21 328 1.6 9.7 0.00 0.00 0.00 42 1013.6
20260505003004 21 311 3.2 19.3 0.00 0.00 0.00 41 1013.6
20260505002004 21 317 1.6 20.9 0.00 0.00 0.00 41 1013.6
20260505001504 21 318 1.6 4.8 0.00 0.00 0.00 43 1013.6
20260505001004 21 314 4.8 19.3 0.00 0.00 0.00 40 1013.6
20260504235504 22 321 3.2 11.3 0.00 0.00 0.00 41 1013.6
20260504235004 21 314 4.8 16.1 0.00 0.00 0.00 39 1013.6
20260504234503 22 310 3.2 14.5 0.00 0.00 0.00 40 1013.6
20260504234004 22 319 1.6 16.1 0.00 0.00 0.00 39 1013.6
20260504233504 22 313 3.2 16.1 0.00 0.00 0.00 40 1013.6
20260504233004 22 307 1.6 12.9 0.00 0.00 0.00 40 1013.7
20260504232004 22 312 1.6 4.8 0.00 0.00 0.00 41 1013.7
20260504231504 22 313 1.6 11.3 0.00 0.00 0.00 40 1013.7
20260504231004 21 314 1.6 11.3 0.00 0.00 0.00 39 1013.8
20260504230504 22 318 3.2 16.1 0.00 0.00 0.00 38 1013.8
20260504230004 22 318 1.6 14.5 0.00 0.00 0.00 38 1013.9
20260504225504 22 318 0.0 4.8 0.00 0.00 0.00 38 1013.9
20260504224504 22 314 0.0 8.0 0.00 0.00 0.00 38 1013.9
20260504224004 22 340 0.0 4.8 0.00 0.00 0.00 39 1013.9
20260504223504 22 338 0.0 4.8 0.00 0.00 0.00 38 1014.0
20260504222504 22 322 0.0 3.2 0.00 0.00 0.00 38 1014.0
20260504222004 22 336 0.0 4.8 0.00 0.00 0.00 40 1014.1
20260504221504 22 350 0.0 8.0 0.00 0.00 0.00 40 1014.1
20260504221004 22 313 0.0 11.3 0.00 0.00 0.00 40 1014.1
20260504220503 22 324 1.6 4.8 0.00 0.00 0.00 39 1014.1
20260504220004 21 322 1.6 12.9 0.00 0.00 0.00 40 1014.1
20260504215504 21 318 1.6 16.1 0.00 0.00 0.00 37 1014.2
20260504215004 21 311 1.6 16.1 0.00 0.00 0.00 36 1014.3
20260504214004 22 313 1.6 12.9 0.00 0.00 0.00 35 1014.4
20260504213503 22 322 1.6 4.8 0.00 0.00 0.00 34 1014.4
20260504213004 22 321 1.6 4.8 0.00 0.00 0.00 37 1014.4
20260504212504 22 327 1.6 12.9 0.00 0.00 0.00 37 1014.4
20260504212004 22 313 3.2 14.5 0.00 0.00 0.00 37 1014.4
20260504211004 22 317 0.0 3.2 0.00 0.00 0.00 39 1014.5
20260504210503 22 314 1.6 9.7 0.00 0.00 0.00 37 1014.6
20260504205504 22 328 0.0 4.8 0.00 0.00 0.00 36 1014.7
20260504204504 22 310 0.0 4.8 0.00 0.00 0.00 38 1014.7
20260504204005 22 346 0.0 8.0 0.00 0.00 0.00 35 1014.6
20260504203504 22 356 0.0 3.2 0.00 0.00 0.00 36 1014.6
20260504202504 22 325 1.6 4.8 0.00 0.00 0.00 36 1014.7
20260504202004 22 349 1.6 9.7 0.00 0.00 0.00 36 1014.7
20260504201504 22 339 0.0 4.8 0.00 0.00 0.00 34 1014.7
20260504201004 22 333 0.0 3.2 0.00 0.00 0.00 35 1014.7
20260504200504 22 310 1.6 4.8 0.00 0.00 0.00 33 1014.7
20260504200004 22 308 1.6 4.8 0.00 0.00 0.00 35 1014.6
20260504195503 22 322 0.0 11.3 0.00 0.00 0.00 34 1014.6
20260504195004 22 315 0.0 4.8 0.00 0.00 0.00 34 1014.6
20260504194504 22 328 0.0 4.8 0.00 0.00 0.00 36 1014.6
20260504194004 22 336 1.6 4.8 0.00 0.00 0.00 35 1014.7
20260504193004 21 304 1.6 9.7 0.00 0.00 0.00 34 1014.7
20260504192504 21 317 1.6 8.0 0.00 0.00 0.00 36 1014.7
20260504192005 21 320 0.0 12.9 0.00 0.00 0.00 38 1014.7
20260504191004 21 305 1.6 4.8 0.00 0.00 0.00 35 1014.8
20260504190004 21 335 0.0 4.8 0.00 0.00 0.00 39 1014.8
20260504185504 21 295 1.6 14.5 0.00 0.00 0.00 36 1014.8
20260504185004 21 319 1.6 8.0 0.00 0.00 0.00 34 1014.9
20260504184504 21 333 0.0 3.2 0.00 0.00 0.00 36 1014.9
20260504184004 21 333 0.0 1.6 0.00 0.00 0.00 36 1014.9
20260504183504 21 306 0.0 3.2 0.00 0.00 0.00 36 1014.9
20260504183003 21 312 0.0 3.2 0.00 0.00 0.00 36 1014.9
20260504182504 21 346 0.0 1.6 0.00 0.00 0.00 36 1014.8
20260504182004 21 324 0.0 1.6 0.00 0.00 0.00 37 1014.8
20260504181504 21 330 0.0 1.6 0.00 0.00 0.00 36 1014.8
20260504181004 21 311 0.0 3.2 0.00 0.00 0.00 35 1014.8
20260504175004 21 323 0.0 1.6 0.00 0.00 0.00 37 1014.8
20260504174504 21 351 0.0 4.8 0.00 0.00 0.00 38 1014.8
20260504174004 21 351 0.0 3.2 0.00 0.00 0.00 36 1014.8
20260504173004 21 345 0.0 1.6 0.00 0.00 0.00 36 1014.8
20260504172004 21 338 0.0 1.6 0.00 0.00 0.00 35 1014.8
20260504171504 21 347 0.0 1.6 0.00 0.00 0.00 36 1014.8
20260504171004 21 351 0.0 4.8 0.00 0.00 0.00 35 1014.8
20260504170504 20 323 0.0 1.6 0.00 0.00 0.00 38 1014.8
20260504150504 17 277 0.0 0.0 0.00 0.00 0.00 50 1015.0
20260504140504 13 284 0.0 0.0 0.00 0.00 0.00 57 1014.8
20260504130504 12 283 0.0 0.0 0.00 0.00 0.00 46 1014.8